Location: Valley View Observatory
(41.0081°N, 76.5874°W)
Time: 19:54:13
(UTC-04:00)

Daily predictions for brighter satellites

Satellite Brightness Start Highest point End
(mag) Time Altitude Azimuth Time Altitude Azimuth Time Altitude Azimuth
Cosmos 1833 Rocket 4.4 19:47:50 10° NNE 19:51:07 15° NE 19:54:23 10° E
Cosmos 2278 Rocket 2.7 19:47:59 10° S 19:53:07 37° ESE 19:58:17 10° NE
Lacrosse 4 Rocket 1.3 19:49:43 10° SSW 19:53:47 88° WNW 19:57:51 10° NNE
Cosmos 1378 3.3 19:50:12 10° N 19:53:54 53° E 19:57:34 10° SSE
FengYun 1-2 T 4.3 19:53:57 10° SSE 19:59:25 64° ENE 20:04:59 10° N
FENGYUN 3A 3.7 19:54:09 10° SSE 19:59:31 68° ENE 20:04:53 10° N
Lacrosse 5 2.1 19:54:53 10° SSW 19:59:46 50° SE 20:04:40 10° NE
CZ-3B DEB 3.2 19:47:10 10° SW 20:00:03 82° SE 20:05:44 10° NE
HJ-1C 3.4 20:00:32 10° SSE 20:03:53 66° ENE 20:07:17 10° N
Cosmos 1937 Rocket 3.5 20:03:25 10° SSW 20:08:38 87° ESE 20:13:58 10° NNE
H-2A R/B 2.9 20:07:01 10° SSE 20:10:48 56° ENE 20:14:40 10° N
SL-27 R/B 2.6 20:08:59 10° N 20:12:31 57° ENE 20:16:04 10° SSE
Cosmos 1953 3.5 20:09:24 10° SE 20:12:37 23° E 20:15:51 10° NE
Meteor 1-24 Rocket 3.6 20:07:33 10° N 20:13:02 76° E 20:18:43 10° SSE
Resurs 1-3 3.8 20:08:56 10° SSE 20:13:10 52° ENE 20:17:27 10° N
FREGAT/IRIS 4.1 20:11:19 10° S 20:14:14 41° W 20:17:11 10° NNW
SeaSat 1 2.7 20:10:20 10° SSE 20:15:15 73° WSW 20:20:12 10° NNW
Meteor 1-4 Rocket 3.7 20:12:56 10° SE 20:15:36 21° E 20:18:16 10° NE
Cosmos 1707 4.0 20:12:21 10° NNW 20:16:06 45° W 20:19:48 10° SSW
Meteor 1-29 4.3 20:15:45 10° NE 20:18:20 19° E 20:19:51 15° SE
Cosmos 1544 3.7 20:16:14 10° SSE 20:19:30 32° E 20:22:49 10° NNE
COSMOS 2487 4.4 20:17:40 10° NNE 20:19:40 14° ENE 20:20:12 14° ENE
Cosmos 2082 Rocket 3.2 20:18:04 10° N 20:22:58 28° NE 20:26:10 17° ESE
OE (NEXTSAT) 4.4 20:20:28 10° SW 20:24:01 64° SSE 20:26:34 18° ENE
Cosmos 1766 3.5 20:29:27 10° SSW 20:33:18 72° W 20:37:12 10° N
Lacrosse 5 rocket 3.4 20:31:12 10° NNW 20:33:25 14° NNE 20:35:09 11° NE
Cosmos 1934 Rocket 4.1 20:28:58 10° S 20:35:07 77° W 20:41:14 10° N
Okean 3 Rocket 3.5 20:34:30 10° N 20:38:55 72° E 20:43:18 10° SSE
Tiangong 1 1.4 20:36:24 10° W 20:39:15 49° SSW 20:40:10 33° SSE
RESURS DK-1 2.6 20:37:54 10° NNW 20:42:01 68° WSW 20:45:50 12° SSE
Cosmos 1867 3.9 20:41:04 10° S 20:46:08 41° ESE 20:51:15 10° NE
Abrixas 3.1 20:43:50 10° NW 20:46:33 38° NNE 20:46:54 36° NE
USA 186 1.0 20:50:04 69° NW 20:50:04 69° NW 20:52:07 10° NNW
Cosmos 372 Rocket 4.2 20:48:18 10° S 20:53:05 43° ESE 20:57:57 10° NNE
Timation 1 Rocket 4.3 20:47:27 10° SSW 20:53:22 67° ESE 20:59:21 10° NNE
Meteor 1-21 Rocket 4.3 20:50:32 10° N 20:56:20 67° ENE 21:00:51 17° SSE
USA 215 3.2 20:53:20 10° NE 20:59:50 64° SE 21:06:17 10° SW
GP-B 3.0 20:58:25 18° SSE 21:01:37 72° E 21:06:03 10° N
Spot 2 Rocket 4.5 20:56:58 10° S 21:01:52 47° W 21:06:48 10° NNW
CZ-2D R/B 4.3 20:58:27 10° S 21:02:10 46° W 21:05:55 10° NNW
Cosmos 2344 4.1 20:55:17 10° SW 21:02:52 62° NW 21:11:32 10° NNE
Cosmos 1674 2.7 20:59:10 10° N 21:02:53 53° E 21:02:55 53° E
Resurs 01 Rocket 3.2 21:00:11 10° SSW 21:04:13 36° W 21:08:19 10° NNW
Cosmos 158 Rocket 4.1 21:00:30 10° N 21:05:30 53° ENE 21:06:52 41° ESE
Cosmos 1805 4.0 21:04:41 10° SSW 21:08:29 54° W 21:12:20 10° N
Cosmos 1076 Rocket 3.5 21:06:00 10° N 21:10:16 79° W 21:12:27 28° S
H-2A R/B 4.1 21:14:41 14° NE 21:14:41 14° NE 21:16:34 10° NNE
Cosmos 1766 Rocket 3.5 21:10:18 10° N 21:14:48 82° E 21:16:04 47° SSE
Cosmos 2100 Rocket 3.9 21:08:43 10° S 21:14:56 65° E 21:21:15 10° NNE
Envisat 2.9 21:17:16 31° SSE 21:19:45 87° WSW 21:24:52 10° NNW
Helios 1B rocket 3.2 21:17:06 10° N 21:21:08 52° WNW 21:25:07 10° SSW
YAOGAN 6 4.1 21:22:58 28° NNE 21:22:58 28° NNE 21:25:00 10° N
Cosmos 1470 3.2 21:23:17 52° NNE 21:23:17 52° NNE 21:26:23 10° N
CZ-4B DEB 3.6 21:22:45 46° W 21:22:45 46° W 21:25:33 10° NNW
Cosmos 1340 Rocket 3.4 21:19:05 10° N 21:22:08 44° NNE 21:22:08 44° NNE
Helios 1A 4.2 21:23:52 17° SSW 21:26:41 40° W 21:30:38 10° NNW
Cosmos 1125 Rocket 3.8 21:22:31 10° SSW 21:27:41 67° WNW 21:32:53 10° NNE
Cosmos 1048 Rocket 4.0 21:26:58 10° NNW 21:32:05 74° WSW 21:33:23 50° S
USA 267 4.0 21:30:04 31° ENE 21:32:13 39° NNE 21:38:10 10° NW
Cosmos 1802 Rocket 3.8 21:31:03 37° SSE 21:33:36 71° E 21:39:44 10° NNE
Cosmos-2242 3.1 21:33:21 64° SW 21:33:51 74° W 21:38:07 10° N
Cosmos 1833 Rocket 2.6 21:30:11 10° NNW 21:35:50 88° WSW 21:36:55 60° SSE
Cosmos 2278 Rocket 3.9 21:32:08 10° WSW 21:37:12 33° WNW 21:42:18 10° N
Cosmos 1733 4.5 21:43:27 36° NNW 21:43:27 36° NNW 21:45:57 10° N
Lacrosse 5 3.4 21:38:21 10° W 21:42:55 33° NNW 21:47:18 11° NNE
Cosmos 2061 Rocket 4.0 21:38:33 18° S 21:43:26 88° W 21:49:55 10° N
ERS-1 Rocket 2.8 21:43:28 86° E 21:43:29 86° ENE 21:48:33 10° NNW
MetOp-B 4.4 21:45:45 53° NE 21:45:45 53° NE 21:50:19 10° N
SPOT 5 3.7 21:47:10 44° NE 21:47:10 44° NE 21:51:17 10° N
Cosmos 1743 Rocket 4.2 21:42:12 10° N 21:45:26 49° N 21:45:26 49° N
Cosmos 1939 Rocket 3.9 21:48:08 44° WSW 21:48:18 44° W 21:52:17 10° NNW
Timation 2 Rocket 3.9 21:42:27 10° NNW 21:48:48 79° WSW 21:49:54 61° S
Cosmos 2297 4.4 21:44:55 10° SW 21:50:28 53° WNW 21:56:07 10° NNE
Cosmos 1818 4.4 21:49:23 10° NW 21:54:31 43° WSW 21:55:29 39° SW
ATLAS 5 CENTAUR R/B 3.9 21:52:24 10° SW 21:53:19 16° SW 21:53:19 16° SW
Cosmos 2251 Rocket 4.2 21:55:26 10° NNW 21:59:22 46° NNE 21:59:22 46° NNE
Cosmos 2082 Rocket 3.0 22:01:50 10° NW 22:07:12 43° WSW 22:08:03 40° SW
Meteor 1-16 Rocket 4.5 22:11:54 67° N 22:11:54 67° N 22:17:03 10° N
CZ-3B DEB 3.9 22:06:17 10° W 22:12:41 25° NNW 22:15:02 17° N
Lacrosse 5 rocket 3.6 22:09:29 10° NW 22:10:52 21° NW 22:10:52 21° NW
Terra 4.2 22:17:20 14° NNE 22:17:20 14° NNE 22:18:05 10° N
ARGOS 4.1 22:29:20 43° NNW 22:29:20 43° NNW 22:32:53 10° NNW
USA 215 4.2 22:36:32 10° NE 22:42:39 43° NNW 22:48:43 10° W
H-2A R/B 3.8 22:55:19 28° NNW 22:55:19 28° NNW 22:57:47 10° NNW
CZ-3 Stage 3 4.5 22:53:58 10° W 23:03:53 26° SW 23:03:53 26° SW
USA 267 4.2 23:17:25 41° WNW 23:17:25 41° WNW 23:21:28 10° NW
